Regional Weather Roundup
Issued by NWS

Home | Current Version | Previous Version | Graphics & Text | Print | Product List | Glossary Off
Versions: 1 2 3 4 5 6 7 8 9 10 11 12 13 14 15 16 17 18 19 20 21 22 23 24 25 26 27 28 29 30 31 32 33 34 35 36 37 38 39 40 41 42 43 44 45 46 47 48 49 50

317
ASUS43 KLSX 251410
RWRMO

WEATHER SUMMARY FOR MISSOURI
NATIONAL WEATHER SERVICE SPRINGFIELD MO
900 AM CDT TUE APR 25 2017

NOTE: "FAIR" INDICATES FEW OR NO CLOUDS BELOW 12,000 FEET WITH NO
       SIGNIFICANT WEATHER AND/OR OBSTRUCTIONS TO VISIBILITY.
       CURRENT SKY AND/OR WEATHER CONDITIONS ARE NOT AVAILABLE FOR
       CHILLICOTHE AND FARMINGTON.

MOZ001>031-035>038-043-044-053-054-251500-
...NORTHERN AND WESTERN MISSOURI...

CITY           SKY/WX    TMP DP  RH WIND       PRES   REMARKS
KANSAS CTY INT PTSUNNY   63  47  55 SE16      29.46F
KANSAS C DTWN  MOSUNNY   62  46  55 E10       29.47F
LEE`S SUMMIT   CLOUDY    61  46  57 SE12G22   29.49F
ST JOSEPH      MOSUNNY   64  50  60 S10       29.46F
CHILLICOTHE      N/A     60  44  55 SE9       29.54F
KIRKSVILLE     CLOUDY    57  44  62 SE9       29.57F

$$
MOZ066>068-077>081-088>096-101>105-251500-
...SOUTHWEST MISSOURI...

CITY           SKY/WX    TMP DP  RH WIND       PRES   REMARKS
SPRINGFIELD    CLOUDY    63  46  54 SE20G26   29.55F
JOPLIN         SUNNY     67  51  56 S15G24    29.50F
BRANSON        PTSUNNY   61  46  59 SE12G17   29.61F

$$
MOZ032>034-039>042-045>050-055>058-069>072-251500-
...CENTRAL MISSOURI...

CITY           SKY/WX    TMP DP  RH WIND       PRES   REMARKS
COLUMBIA       CLOUDY    59  47  64 E13       29.57F
JEFFERSON CITY CLOUDY    62  46  55 E13       29.59F
ROLLA          CLOUDY    65  48  54 S13       29.62F
SEDALIA        MOSUNNY   60  47  61 SE14      29.54F
WHITEMAN AFB   CLOUDY    61  47  60 SE12      29.50F
OSAGE BEACH    CLOUDY    61  46  57 S8        29.59F

$$
MOZ051-052-059>065-251500-
...EAST CENTRAL MISSOURI...

CITY           SKY/WX    TMP DP  RH WIND       PRES   REMARKS
ST LOUIS INTL  MOSUNNY   67  50  54 S14       29.68S
SPIRIT OF STL  SUNNY     66  50  56 S10G21    29.66S
ST CHARLES       N/A     67  51  56 S14       29.66F

$$
MOZ072>076-082>087-097>100-106>115-251500-
...SOUTH CENTRAL AND SOUTHEAST MISSOURI...

CITY           SKY/WX    TMP DP  RH WIND       PRES   REMARKS
CAPE GIRARDEAU SUNNY     63  56  78 S8        29.73S
FARMINGTON     SUNNY     63  52  67 S17       29.70S
POPLAR BLUFF   MOSUNNY   62  58  86 S7        29.71F
WEST PLAINS    SUNNY     61  47  59 S12       29.68S

$$




USA.gov is the U.S. government's official web portal to all federal, state and local government web resources and services.